This is the latest recevied weather packets stored in our database for station/object AD8AK. If no packets are shown the sender has not sent any weather packets the latest 1 day(s).
| Time | Temp. | Humidity | Pressure | Rain* | Wind** | Luminosity | Snow |
|---|---|---|---|---|---|---|---|
| 1777990063 | 17.78° C | 69% | 1005.9 hPa | 0 mm | 2.68 m/s, 241° | - | - |
| 1777989761 | 17.22° C | 71% | 1005.8 hPa | 0 mm | 0.45 m/s, 264° | - | - |
| 1777989457 | 17.22° C | 71% | 1005.8 hPa | 0 mm | 2.68 m/s, 253° | - | - |
| 1777989154 | 16.67° C | 71% | 1006 hPa | 0 mm | 1.79 m/s, 281° | - | - |
| 1777988850 | 16.67° C | 71% | 1006.2 hPa | 0 mm | 2.24 m/s, 267° | - | - |
| 1777988547 | 16.67° C | 72% | 1005.7 hPa | 0 mm | 0.89 m/s, 254° | - | - |
| 1777988244 | 16.67° C | 72% | 1005.8 hPa | 0 mm | 1.34 m/s, 241° | - | - |
| 1777987941 | 16.67° C | 72% | 1005.8 hPa | 0 mm | 1.79 m/s, 291° | - | - |
| 1777987636 | 16.67° C | 72% | 1005.8 hPa | 0 mm | 1.34 m/s, 281° | - | - |
| 1777987334 | 16.67° C | 72% | 1006 hPa | 0 mm | 1.34 m/s, 309° | - | - |
| 1777987031 | 16.67° C | 72% | 1005.9 hPa | 0 mm | 2.24 m/s, 295° | - | - |
| 1777986729 | 16.67° C | 72% | 1005.9 hPa | 0 mm | 2.24 m/s, 234° | - | - |
| 1777986426 | 16.67° C | 72% | 1005.8 hPa | 0 mm | 1.79 m/s, 233° | - | - |
| 1777986124 | 16.11° C | 73% | 1005.8 hPa | 0 mm | 0.89 m/s, 308° | - | - |
| 1777985820 | 16.11° C | 73% | 1005.9 hPa | 0 mm | 1.34 m/s, 264° | - | - |
| 1777985518 | 16.11° C | 73% | 1005.8 hPa | 0 mm | 1.79 m/s, 268° | - | - |
| 1777985214 | 15.56° C | 75% | 1006 hPa | 0 mm | 1.79 m/s, 220° | - | - |
| 1777984911 | 15.56° C | 74% | 1006.1 hPa | 0 mm | 2.68 m/s, 245° | - | - |
| 1777984607 | 15.56° C | 75% | 1006.1 hPa | 0 mm | 1.34 m/s, 339° | - | - |
| 1777984304 | 15.56° C | 76% | 1006 hPa | 0 mm | 0.89 m/s, 222° | - | - |
| 1777984000 | 15.56° C | 77% | 1005.8 hPa | 0 mm | 0.89 m/s, 308° | - | - |
| 1777983698 | 15° C | 77% | 1005.9 hPa | 0 mm | 0.89 m/s, 312° | - | - |
| 1777983394 | 14.44° C | 78% | 1006.1 hPa | 0 mm | 0.89 m/s, 282° | - | - |
| 1777983091 | 15° C | 78% | 1005.9 hPa | 0 mm | 0.89 m/s, 286° | - | - |
| 1777982787 | 15° C | 77% | 1006 hPa | 0 mm | 1.79 m/s, 272° | - | - |
* Rain latest hour (hover to see other rain measurements)
** Current wind speed in m/s (hover to see current wind gust speed)